1335225632302,153.945
1335225692302,153.892
1335225752302,153.603
1335225812302,153.772
1335225872302,153.454
1335225932302,153.822
1335225992302,153.680
1335226052302,153.607
1335226112302,153.313
1335226172302,153.609
1335226232302,153.408
1335226292302,153.421
1335226352302,153.447
1335226412302,153.596
1335226472302,153.516
1335226532302,153.335
1335226592302,153.557
1335226652302,153.431
1335226712302,153.133
1335226772302,153.430
1335226832302,153.512
1335226892302,153.414
1335226952302,153.351
1335227012302,153.328
1335227072302,153.311
1335227132302,153.261
1335227192302,153.319
1335227252302,153.323
1335227312302,153.611
1335227372302,153.285
1335227432302,152.995
1335227492302,153.330
1335227552302,153.579
1335227612302,153.127
1335227672302,153.280
1335227732302,153.230
1335227792302,153.230
1335227852302,153.417
1335227912302,153.359
1335227972302,153.458
1335228032302,153.351
1335228092302,153.263
1335228152302,153.288
1335228212302,152.991
1335228272302,152.937
1335228332302,153.140
1335228392302,153.076
1335228452302,152.974
1335228512302,153.358
1335228572302,152.666
1335228632302,153.322
1335228692302,153.440
1335228752302,153.462
1335228812302,153.278
1335228872302,153.002
1335228932302,152.810
1335228992302,152.867
1335229052302,153.237
1335229112302,153.038
1335229172302,152.992
1335229232313,153.263
1335229292313,152.914
1335229352313,153.117
1335229412313,153.099
1335229472313,152.675
1335229532313,152.944
1335229592313,152.996
1335229652313,152.851
1335229712313,152.859
1335229772313,152.708
1335229832313,152.697
1335229892313,152.824
1335229952313,152.679
1335230012313,153.014
1335230072313,152.817
1335230132313,153.164
1335230192313,152.413
1335230252313,152.606
1335230312313,152.810
1335230372313,152.937
1335230432313,152.802
1335230492313,152.576
1335230552313,152.684
1335230612313,152.949
1335230672313,152.533
1335230732313,152.829
1335230792313,153.044
1335230852313,152.857
1335230912313,152.928
1335230972313,152.745
1335231032313,152.465
1335231092313,152.993
1335231152313,152.936
1335231212313,152.931
1335231272313,152.888
1335231332313,153.268
1335231392313,153.351
1335231452313,152.881
1335231512313,152.823
1335231572313,153.036
1335231632313,152.952
1335231692313,152.999
1335231752313,152.990
1335231812313,152.922
1335231872313,153.120
1335231932313,152.851
1335231992313,153.029
1335232052313,153.034
1335232112313,153.195
1335232172313,152.856
1335232232313,153.216
1335232292313,152.944
1335232352313,153.161
1335232412313,153.063
1335232472313,153.138
1335232532313,153.117
1335232592313,153.160
1335232652313,152.955
1335232712313,153.166
1335232772313,153.334
1335232832324,152.962
1335232892324,153.216
1335232952324,153.300
1335233012324,153.184
1335233072324,153.187
1335233132324,153.147
1335233192324,153.052
1335233252324,153.064
1335233312324,153.220
1335233372324,153.104
1335233432324,153.100
1335233492324,153.385
1335233552324,153.070
1335233612324,153.045
1335233672324,153.143
1335233732324,153.110
1335233792324,153.243
1335233852324,152.992
1335233912324,152.814
1335233972324,153.143
1335234032324,153.114
1335234092324,153.280
1335234152324,152.903
1335234212324,152.757
1335234272324,152.820
1335234332324,152.791
1335234392324,152.974
1335234452324,152.996
1335234512324,152.715
1335234572324,152.898
1335234632324,152.480
1335234692324,152.407
1335234752324,152.425
1335234812324,152.572
1335234872324,152.654
1335234932324,152.902
1335234992324,152.447
1335235052324,152.450
1335235112324,152.648
1335235172324,152.772
1335235232324,152.947
1335235292324,152.391
1335235352324,153.000
1335235412324,152.958
1335235472324,152.636
1335235532324,152.653
1335235592324,152.706
1335235652324,152.460
1335235712324,152.227
1335235772324,152.420
1335235832324,152.382
1335235892324,152.541
1335235952324,152.693
1335236012324,152.740
1335236072324,152.716
1335236132324,152.482
1335236192324,152.306
1335236252324,152.586
1335236312324,152.510
1335236372324,152.639
1335236432335,152.409
1335236492335,152.336
1335236552335,152.692
1335236612335,152.593
1335236672335,152.584
1335236732335,152.418
1335236792335,152.554
1335236852335,152.651
1335236912335,152.540
1335236972335,152.515
1335237032335,152.797
1335237092335,152.885
1335237152335,152.497
1335237212335,152.279
1335237272335,152.736
1335237332335,152.480
1335237392335,152.125
1335237452335,152.332
1335237512335,152.421
1335237572335,152.473
1335237632335,152.803
1335237692335,152.453
1335237752335,152.642
1335237812335,152.357
1335237872335,152.360
1335237932335,152.409
1335237992335,152.916
1335238052335,152.089
1335238112335,152.410
1335238172335,152.344
1335238232335,152.247
1335238292335,152.029
1335238352335,152.446
1335238412335,152.259
1335238472335,152.412
1335238532335,152.601
1335238592335,152.317
1335238652335,152.354
1335238712335,152.537
1335238772335,152.464
1335238832335,152.529
1335238892335,152.030
1335238952335,152.305
1335239012335,152.212
1335239072335,152.632
1335239132335,152.286
1335239192335,152.205
1335239252335,152.243
1335239312335,152.258
1335239372335,152.078
1335239432335,152.424
1335239492335,152.681
1335239552335,152.381
1335239612335,152.318
1335239672335,152.485
1335239732335,152.236
1335239792335,152.210
1335239852335,152.404
1335239912335,152.525
1335239972335,152.362
1335240032345,152.261
1335240092345,152.660
1335240152345,152.309
1335240212345,152.393
1335240272345,152.351
1335240332345,152.489
1335240392345,152.370
1335240452345,152.271
1335240512345,152.427
1335240572345,152.508
1335240632345,152.630
1335240692345,152.411
1335240752345,152.439
1335240812345,152.485
1335240872345,152.345
1335240932345,152.867
1335240992345,152.503
1335241052345,152.659
1335241112345,152.664
1335241172345,152.894
1335241232345,152.804
1335241292345,152.825
1335241352345,152.764
1335241412345,152.923
1335241472345,152.898
1335241532345,152.568
1335241592345,152.487
1335241652345,152.580
1335241712345,152.833
1335241772345,152.612
1335241832345,152.792
1335241892345,153.017
1335241952345,153.085
1335242012345,153.123
1335242072345,152.752
1335242132345,152.842
1335242192345,152.908
1335242252345,153.114
1335242312345,152.818
1335242372345,152.732
1335242432345,153.168
1335242492345,152.655
1335242552345,153.318
1335242612345,153.114
1335242672345,153.004
1335242732345,153.033
1335242792345,152.772
1335242852345,153.022
1335242912345,152.646
1335242972345,153.047
1335243032345,152.833
1335243092345,152.998
1335243152345,152.597
1335243212345,152.921
1335243272345,152.826
1335243332345,152.852
1335243392345,152.934
1335243452345,152.880
1335243512345,153.070
1335243572345,153.043
1335243632356,153.102
1335243692356,152.796
1335243752356,153.111
1335243812356,153.102
1335243872356,152.904
1335243932356,152.785
1335243992356,153.397
1335244052356,152.899
1335244112356,153.021
1335244172356,153.028
1335244232356,152.693
1335244292356,153.299
1335244352356,152.970
1335244412356,153.156
1335244472356,153.175
1335244532356,153.129
1335244592356,152.992
1335244652356,153.086
1335244712356,152.924
1335244772356,153.253
1335244832356,153.292
1335244892356,152.919
1335244952356,152.874
1335245012356,152.819
1335245072356,152.981
1335245132356,153.016
1335245192356,153.219
1335245252356,153.331
1335245312356,153.496
1335245372356,153.068
1335245432356,153.445
1335245492356,153.258
1335245552356,153.449
1335245612356,153.326
1335245672356,153.375
1335245732356,153.203
1335245792356,153.429
1335245852356,153.141
1335245912356,153.610
1335245972356,153.331
1335246032356,153.240
1335246092356,153.078
1335246152356,153.446
1335246212356,153.642
1335246272356,153.693
1335246332356,153.675
1335246392356,153.668
1335246452356,153.441
1335246512356,153.520
1335246572356,153.375
1335246632356,153.441
1335246692356,153.266
1335246752356,153.089
1335246812356,153.487
1335246872356,152.987
1335246932356,153.068
1335246992356,153.528
1335247052356,152.961
1335247112356,153.134
1335247172356,152.924
1335247232366,153.201
1335247292366,153.075
1335247352366,152.948
1335247412366,153.020
1335247472366,153.029
1335247532366,153.107
1335247592366,153.010
1335247652366,153.123
1335247712366,152.883
1335247772366,153.174
1335247832366,153.062
1335247892366,153.066
1335247952366,152.771
1335248012366,152.719
1335248072366,152.825
1335248132366,152.989
1335248192366,153.018
1335248252366,152.784
1335248312366,152.933
1335248372366,152.754
1335248432366,152.991
1335248492366,153.225
1335248552366,152.812
1335248612366,152.525
1335248672366,152.947
1335248732366,152.754
1335248792366,152.713
1335248852366,152.620
1335248912366,152.804
1335248972366,152.694
1335249032366,152.656
1335249092366,152.547
1335249152366,152.562
1335249212366,152.809
1335249272366,152.744
1335249332366,152.756
1335249392366,152.566
1335249452366,152.610
1335249512366,152.871
1335249572366,153.078
1335249632366,152.506
1335249692366,152.620
1335249752366,153.208
1335249812366,152.775
1335249872366,152.751
1335249932366,152.832
1335249992366,152.846
1335250052366,152.890
1335250112366,153.009
1335250172366,152.727
1335250232366,152.715
1335250292366,152.855
1335250352366,152.868
1335250412366,153.015
1335250472366,152.715
1335250532366,152.989
1335250592366,152.414
1335250652366,153.151
1335250712366,153.061
1335250772366,152.745
1335250832377,152.611
1335250892377,152.888
1335250952377,153.055
1335251012377,153.118
1335251072377,152.474
1335251132377,152.805
1335251192377,152.664
1335251252377,153.124
1335251312377,152.882
1335251372377,152.668
1335251432377,153.013
1335251492377,152.642
1335251552377,152.987
1335251612377,152.551
1335251672377,153.230
1335251732377,153.116
1335251792377,152.570
1335251852377,153.064
1335251912377,152.890
1335251972377,152.956
1335252032377,153.236
1335252092377,152.905
1335252152377,153.444
1335252212377,152.891
1335252272377,153.374
1335252332377,153.093
1335252392377,153.184
1335252452377,153.144
1335252512377,152.883
1335252572377,153.228
1335252632377,153.601
1335252692377,153.307
1335252752377,153.203
1335252812377,153.277
1335252872377,153.358
1335252932377,153.424
1335252992377,153.359
1335253052377,153.395
1335253112377,153.304
1335253172377,153.220
1335253232377,153.373
1335253292377,153.523
1335253352377,153.540
1335253412377,153.505
1335253472377,153.482
1335253532377,153.412
1335253592377,153.830
1335253652377,153.737
1335253712377,153.519
1335253772377,153.462
1335253832377,153.394
1335253892377,153.626
1335253952377,153.464
1335254012377,153.398
1335254072377,153.596
1335254132377,153.574
1335254192377,153.570
1335254252377,153.273
1335254312377,153.163
1335254372377,153.173
1335254432387,152.745
1335254492387,153.170
1335254552387,153.615
1335254612387,153.038
1335254672387,153.402
1335254732387,153.082
1335254792387,153.175
1335254852387,153.119
1335254912387,153.319
1335254972387,152.892
1335255032387,153.118
1335255092387,153.113
1335255152387,153.039
1335255212387,153.084
1335255272387,152.962
1335255332387,152.587
1335255392387,152.586
1335255452387,152.776
1335255512387,152.844
1335255572387,152.382
1335255632387,152.296
1335255692387,152.574
1335255752387,152.495
1335255812387,152.282
1335255872387,152.210
1335255932387,152.314
1335255992387,152.071
1335256052387,152.035
1335256112387,151.991
1335256172387,152.148
1335256232387,152.036
1335256292387,152.062
1335256352387,152.173
1335256412387,152.303
1335256472387,152.055
1335256532387,151.819
1335256592387,152.112
1335256652387,152.143
1335256712387,151.758
1335256772387,152.040
1335256832387,151.957
1335256892387,151.894
1335256952387,152.077
1335257012387,151.974
1335257072387,151.981
1335257132387,151.803
1335257192387,151.915
1335257252387,151.893
1335257312387,152.072
1335257372387,151.964
1335257432387,151.716
1335257492387,151.671
1335257552387,151.983
1335257612387,151.767
1335257672387,151.733
1335257732387,151.566
1335257792387,151.773
1335257852387,151.302
1335257912387,151.960
1335257972387,151.873
1335258032398,151.697
1335258092398,152.112
1335258152398,151.774
1335258212398,152.145
1335258272398,152.024
1335258332398,152.071
1335258392398,152.044
1335258452398,151.781
1335258512398,151.971
1335258572398,151.736
1335258632398,151.638
1335258692398,151.618
1335258752398,151.674
1335258812398,151.287
1335258872398,151.585
1335258932398,151.817
1335258992398,151.394
1335259052398,151.631
1335259112398,151.705
1335259172398,151.526
1335259232398,151.604
1335259292398,151.781
1335259352398,151.815
1335259412398,151.702
1335259472398,151.689
1335259532398,151.540
1335259592398,151.565
1335259652398,151.283
1335259712398,151.522
1335259772398,151.647
1335259832398,151.588
1335259892398,151.509
1335259952398,151.587
1335260012398,151.499
1335260072398,150.974
1335260132398,151.126
1335260192398,151.228
1335260252398,151.138
1335260312398,151.087
1335260372398,151.352
1335260432398,151.337
1335260492398,151.395
1335260552398,151.029
1335260612398,151.107
1335260672398,151.285
1335260732398,151.054
1335260792398,151.089
1335260852398,151.089
1335260912398,151.188
1335260972398,151.102
1335261032398,151.109
1335261092398,151.238
1335261152398,151.291
1335261212398,151.118
1335261272398,151.038
1335261332398,151.528
1335261392398,151.496
1335261452398,151.373
1335261512398,151.496
1335261572398,151.251
1335261632408,151.456
1335261692408,151.691
1335261752408,151.523
1335261812408,151.615
1335261872408,151.597
1335261932408,151.441
1335261992408,151.434
1335262052408,151.557
1335262112408,151.971
1335262172408,151.664
1335262232408,151.463
1335262292408,151.559
1335262352408,151.517
1335262412408,151.600
1335262472408,151.537
1335262532408,151.615
1335262592408,151.898
1335262652408,151.489
1335262712408,151.674
1335262772408,151.543
1335262832408,151.617
1335262892408,151.780
1335262952408,151.297
1335263012408,151.823
1335263072408,151.767
1335263132408,152.165
1335263192408,151.848
1335263252408,151.861
1335263312408,151.551
1335263372408,151.623
1335263432408,151.734
1335263492408,151.469
1335263552408,151.945
1335263612408,151.962
1335263672408,151.729
1335263732408,151.705
1335263792408,151.931
1335263852408,151.769
1335263912408,151.472
1335263972408,152.161
1335264032408,151.859
1335264092408,152.044
1335264152408,152.253
1335264212408,151.784
1335264272408,151.967
1335264332408,151.881
1335264392408,151.959
1335264452408,152.144
1335264512408,151.897
1335264572408,151.986
1335264632408,152.075
1335264692408,151.775
1335264752408,151.928
1335264812408,152.246
1335264872408,151.984
1335264932408,151.807
1335264992408,151.908
1335265052408,151.913
1335265112408,151.914
1335265172408,151.964
1335265232418,152.125
1335265292418,152.097
1335265352418,152.363
1335265412418,152.202
1335265472418,152.247
1335265532418,152.279
1335265592418,152.320
1335265652418,152.111
1335265712418,152.368
1335265772418,152.428
1335265832418,152.372
1335265892418,152.467
1335265952418,152.491
1335266012418,152.572
1335266072418,152.347
1335266132418,152.515
1335266192418,152.657
1335266252418,152.384
1335266312418,152.622
1335266372418,152.379
1335266432418,152.569
1335266492418,152.566
1335266552418,152.436
1335266612418,152.616
1335266672418,152.555
1335266732418,152.739
1335266792418,152.734
1335266852418,152.874
1335266912418,152.421
1335266972418,152.858
1335267032418,152.729
1335267092418,153.223
1335267152418,152.702
1335267212418,152.744
1335267272418,152.943
1335267332418,152.584
1335267392418,152.783
1335267452418,152.924
1335267512418,153.010
1335267572418,152.983
1335267632418,153.042
1335267692418,152.928
1335267752418,152.687
1335267812418,152.806
1335267872418,152.684
1335267932418,152.870
1335267992418,152.795
1335268052418,152.947
1335268112418,152.802
1335268172418,153.008
1335268232418,152.948
1335268292418,152.824
1335268352418,152.892
1335268412418,152.847
1335268472418,152.562
1335268532418,152.908
1335268592418,152.637
1335268652418,152.662
1335268712418,153.071
1335268772418,152.617
1335268832429,153.173
1335268892429,152.807
1335268952429,152.682
1335269012429,152.943
1335269072429,152.806
1335269132429,152.865
1335269192429,152.685
1335269252429,153.059
1335269312429,152.917
1335269372429,152.714
1335269432429,152.717
1335269492429,152.779
1335269552429,152.885
1335269612429,152.702
1335269672429,153.117
1335269732429,152.747
1335269792429,152.884
1335269852429,152.702
1335269912429,153.001
1335269972429,152.950
1335270032429,152.699
1335270092429,153.036
1335270152429,153.141
1335270212429,153.068
1335270272429,152.733
1335270332429,153.012
1335270392429,152.950
1335270452429,153.236
1335270512429,152.922
1335270572429,152.972
1335270632429,152.885
1335270692429,152.986
1335270752429,152.767
1335270812429,152.586
1335270872429,152.836
1335270932429,152.798
1335270992429,152.949
1335271052429,152.808
1335271112429,152.883
1335271172429,152.718
1335271232429,152.670
1335271292429,152.849
1335271352429,153.248
1335271412429,152.975
1335271472429,152.889
1335271532429,153.099
1335271592429,152.692
1335271652429,152.609
1335271712429,152.873
1335271772429,152.720
1335271832429,152.794
1335271892429,152.594
1335271952429,152.757
1335272012429,152.825
1335272072429,152.793
1335272132429,152.461
1335272192429,153.227
1335272252429,152.948
1335272312429,152.890
1335272372429,152.927
1335272432439,153.090
1335272492439,152.716
1335272552439,152.741
1335272612439,152.984
1335272672439,152.817
1335272732439,152.593
1335272792439,152.817
1335272852439,153.206
1335272912439,153.273
1335272972439,153.237
1335273032439,153.041
1335273092439,152.901
1335273152439,153.080
1335273212439,153.114
1335273272439,152.550
1335273332439,153.116
1335273392439,153.171
1335273452439,152.931
1335273512439,152.865
1335273572439,152.994
1335273632439,152.986
1335273692439,152.838
1335273752439,152.850
1335273812439,152.987
1335273872439,152.646
1335273932439,152.922
1335273992439,152.924
1335274052439,152.708
1335274112439,152.854
1335274172439,152.785
1335274232439,152.716
1335274292439,152.547
1335274352439,152.413
1335274412439,152.517
1335274472439,152.646
1335274532439,152.473
1335274592439,152.646
1335274652439,152.484
1335274712439,152.543
1335274772439,152.468
1335274832439,152.594
1335274892439,152.373
1335274952439,152.596
1335275012439,152.584
1335275072439,152.728
1335275132439,152.726
1335275192439,152.752
1335275252439,152.736
1335275312439,152.600
1335275372439,152.607
1335275432439,152.924
1335275492439,152.526
1335275552439,152.516
1335275612439,152.698
1335275672439,152.726
1335275732439,152.619
1335275792439,152.309
1335275852439,152.716
1335275912439,152.623
1335275972439,152.779
1335276032449,152.634
1335276092449,152.568
1335276152449,152.871
1335276212449,152.877
1335276272449,152.610
1335276332449,153.041
1335276392449,152.760
1335276452449,152.416
1335276512449,152.615
1335276572449,152.734
1335276632449,152.805
1335276692449,152.672
1335276752449,152.551
1335276812449,152.739
1335276872449,152.730
1335276932449,152.575
1335276992449,152.733
1335277052449,152.825
1335277112449,152.534
1335277172449,152.645
1335277232449,152.551
1335277292449,152.623
1335277352449,152.658
1335277412449,152.635
1335277472449,152.348
1335277532449,152.630
1335277592449,152.315
1335277652449,152.637
1335277712449,152.854
1335277772449,152.199
1335277832449,152.622
1335277892449,152.727
1335277952449,152.353
1335278012449,152.546
1335278072449,152.548
1335278132449,152.588
1335278192449,152.572
1335278252449,152.731
1335278312449,152.455
1335278372449,152.589
1335278432449,152.851
1335278492449,152.847
1335278552449,152.608
1335278612449,152.598
1335278672449,152.659
1335278732449,152.728
1335278792449,153.111
1335278852449,152.892
1335278912449,152.781
1335278972449,152.700
1335279032449,152.912
1335279092449,152.943
1335279152449,153.035
1335279212449,152.904
1335279272449,152.825
1335279332449,153.323
1335279392449,152.712
1335279452449,152.913
1335279512449,153.106
1335279572449,152.598
1335279632459,153.021
1335279692459,152.773
1335279752459,152.914
1335279812459,152.886
1335279872459,153.155
1335279932459,152.841
1335279992459,153.162
1335280052459,153.191
1335280112459,153.104
1335280172459,152.996
1335280232459,153.218
1335280292459,149.262
1335280832459,153.271
1335280892459,153.223
1335280952459,152.996
1335281012459,152.998
1335281072459,153.202
1335281132459,153.040
1335281192459,153.352
1335281252459,153.220
1335281312459,153.214
1335281372459,153.497
1335281432459,153.477
1335281492459,153.599
1335281552459,153.635
1335281612459,153.479
1335281672459,153.245
1335281732459,153.690
1335281792459,153.289
1335281852459,153.735
1335281912459,153.533
1335281972459,153.732
1335282032459,153.351
1335282092459,153.628
1335282152459,153.472
1335282212459,153.655
1335282272459,153.767
1335282332459,153.874
1335282392459,153.811
1335282452459,153.492
1335282512459,153.439
1335282572459,153.458
1335282632459,153.701
1335282692459,153.634
1335282752459,153.715
1335282812459,153.552
1335282872459,153.254
1335282932459,153.590
1335282992459,153.642
1335283052459,153.574
1335283112459,153.979
1335283172459,153.422
1335283232469,153.463
1335283292469,153.373
1335283352469,153.908
1335283412469,153.449
1335283472469,153.698
1335283532469,153.704
1335283592469,153.848
1335283652469,153.700
1335283712469,153.613
1335283772469,153.544
1335283832469,153.512
1335283892469,153.601
1335283952469,153.559
1335284012469,153.490
1335284072469,153.900
1335284132469,153.485
1335284192469,153.182
1335284252469,153.363
1335284312469,153.299
1335284372469,153.593
1335284432469,153.894
1335284492469,153.418
1335284552469,153.323
1335284612469,153.614
1335284672469,153.352
1335284732469,153.623
1335284792469,153.438
1335284852469,153.570
1335284912469,153.091
1335284972469,153.508
1335285032469,153.687
1335285092469,153.366
1335285152469,153.270
1335285212469,153.439
1335285272469,153.360
1335285332469,153.812
1335285392469,153.468
1335285452469,153.415
1335285512469,153.503
1335285572469,153.470
1335285632469,153.616
1335285692469,153.690
1335285752469,153.419
1335285812469,153.059
1335285872469,153.185
1335285932469,153.086
1335285992469,153.401
1335286052469,153.650
1335286112469,153.541
1335286172469,153.748
1335286232469,153.583
1335286292469,153.915
1335286352469,153.426
1335286412469,153.244
1335286472469,153.531
1335286532469,153.645
1335286592469,153.840
1335286652469,153.902
1335286712469,153.595
1335286772469,153.831
1335286832479,153.661
1335286892479,154.098
1335286952479,153.639
1335287012479,153.407
1335287072479,153.745
1335287132479,153.627
1335287192479,153.523
1335287252479,153.689
1335287312479,153.853
1335287372479,153.542
1335287432479,154.042
1335287492479,153.739
1335287552479,153.672
1335287612479,153.352
1335287672479,153.808
1335287732479,154.010
1335287792479,153.838
1335287852479,153.594
1335287912479,153.813
1335287972479,153.669
1335288032479,153.218
1335288092479,153.758
1335288152479,153.599
1335288212479,153.530
1335288272479,153.761
1335288332479,153.346
1335288392479,153.411
1335288452479,153.876
1335288512479,153.962
1335288572479,153.907
1335288632479,153.940
1335288692479,153.842
1335288752479,153.605
1335288812479,153.598
1335288872479,153.760
1335288932479,153.880
1335288992479,154.076
1335289052479,154.168
1335289112479,153.755
1335289172479,153.822
1335289232479,154.070
1335289292479,154.006
1335289352479,154.163
1335289412479,153.924
1335289472479,154.110
1335289532479,154.235
1335289592479,154.314
1335289652479,154.199
1335289712479,154.072
1335289772479,154.208
1335289832479,154.211
1335289892479,154.442
1335289952479,154.175
1335290012479,153.955
1335290072479,153.963
1335290132479,154.121
1335290192479,153.990
1335290252479,153.883
1335290312479,154.031
1335290372479,153.876
1335290432489,153.889
1335290492489,153.874
1335290552489,153.716
1335290612489,153.827
1335290672489,153.956
1335290732489,153.905
1335290792489,154.037
1335290852489,154.056
1335290912489,153.803
1335290972489,154.056
1335291032489,154.187
1335291092489,153.752
1335291152489,153.951
1335291212489,153.783
1335291272489,153.432
1335291332489,153.987
1335291392489,153.747
1335291452489,153.785